Regional Weather Roundup
Issued by NWS

Home | Current Version | Previous Version | Graphics & Text | Print | Product List | Glossary On
Versions: 1 2 3 4 5 6 7 8 9 10 11 12 13 14 15 16 17 18 19 20 21 22 23 24 25 26 27 28 29 30 31 32 33 34 35 36 37 38 39 40 41 42 43 44 45 46 47 48 49 50
000
ASUS44 KMEG 281500
RWRTN
TENNESSEE HOURLY STATE WEATHER ROUNDUP
NATIONAL WEATHER SERVICE MEMPHIS TN
1000 AM CDT THU APR 28 2016

TNZ002-004-019-021-049-052-054-088>092-281600-
WEST TENNESSEE

CITY           SKY/WX    TMP DP  RH WIND       PRES   REMARKS
MEMPHIS INTL   MOSUNNY   77  53  43 NW8       29.91R
NWS MEMPHIS      N/A     74 N/A N/A MISG        N/A
JACKSON        SUNNY     73  62  68 NW9       29.90R
DYERSBURG      SUNNY     72  52  49 NW7       29.91R
UNION CITY     SUNNY     73  48  40 NW8       29.88R
LEXINGTON      MOSUNNY   72  64  78 W6        29.88R
$$

TNZ008-025-027-028-033-062-065-066-281600-
NORTH MIDDLE TENNESSEE

CITY           SKY/WX    TMP DP  RH WIND       PRES   REMARKS
NASHVILLE      CLOUDY    72  63  73 VRB3      29.89S
CLARKSVILLE    PTSUNNY   72  65  78 W8        29.87R
COOKEVILLE     MOSUNNY   73  64  73 SW8       29.91S
CROSSVILLE     PTSUNNY   69  59  70 W15       29.95S
$$

TNZ061-075-076-078-094-096-097-281600-
SOUTH MIDDLE TENNESSEE

CITY           SKY/WX    TMP DP  RH WIND       PRES   REMARKS
TULLAHOMA      PTSUNNY   72  66  83 SW6       29.93S
WINCHESTER     MOSUNNY   73  61  64 CALM      29.93S
MCMINNVILLE    PTSUNNY   72  64  78 VRB5      29.93R
COLUMBIA       PTSUNNY   73  73 100 SW7       29.88F
SHELBYVILLE    CLOUDY    75  66  73 SW6       29.92R
$$

TNZ017-018-042-046-047-281600-
NORTHEAST TENNESSEE

CITY           SKY/WX    TMP DP  RH WIND       PRES   REMARKS
TRI CITIES     MOSUNNY   71  64  78 SW7       29.93F
$$

TNZ012-013-036-069-073-074-281600-
CENTRAL EAST TENNESSEE

CITY           SKY/WX    TMP DP  RH WIND       PRES   REMARKS
KNOXVILLE      PTSUNNY   73  63  70 SW16      29.92R
OAK RIDGE      PTSUNNY   71  64  78 VRB7      29.93F
GATLINBURG     PTSUNNY   73  64  73 VRB6      29.91S
$$

TNZ083-085-099-281600-
SOUTHEAST TENNESSEE

CITY           SKY/WX    TMP DP  RH WIND       PRES   REMARKS
CHATTANOOGA    PTSUNNY   76  60  57 SW9       29.93S
$$

SKY/WX REPORTED AS FAIR MEANS FEW OR NO CLOUDS BELOW
12 THOUSAND FEET.





USA.gov is the U.S. government's official web portal to all federal, state and local government web resources and services.